#timestamp,LO_Frequency,Hit,StdDev 
1594018815.6,286047002.2,N
1594018835.5,286047002.2,N
1594018855.3,286047002.5,N
1594018875.2,286047000.6,N
1594018895.0,286047000.9,N
1594018895.9,286047000.9,N
1594018915.8,286047000.3,N
1594018935.6,286047000.2,N
1594018955.4,286047000.9,N
1594018975.3,286047001.0,N
1594018995.1,286047002.8,N
1594019015.8,286047001.0,N
1594019035.7,286047000.2,N
1594019055.5,286047000.2,N
1594019075.4,286047000.6,N
1594019095.2,286047002.6,N
1594019115.0,286046999.7,N
1594019115.9,286046999.7,N
1594019135.8,286047000.7,N
1594019155.6,286047002.4,N
1594019175.5,286047002.5,N
1594019195.3,286047001.6,N
1594019215.1,286047002.7,N
1594019235.9,286047002.4,N
1594019255.7,286047002.4,N
1594019275.5,286047000.1,N
1594019295.4,286046999.8,N
1594019315.2,286047000.3,N
1594019335.1,286047002.5,N
1594019336.0,286047002.5,N
1594019355.8,286047002.3,N
1594019375.6,286047002.4,N
1594019395.5,286047002.4,N
1594019415.3,286047000.4,N
1594019435.2,286047000.3,N
1594019455.9,286047000.6,N
1594019475.7,286047002.6,N
1594019495.6,286047001.5,N
1594019515.4,286047002.2,N
1594019535.2,286047002.1,N
1594019555.1,286047001.8,N
1594019556.0,286047001.8,N
1594019575.8,286047001.5,N
1594019595.7,286047001.4,N
1594019615.5,286047001.5,N
1594019635.3,286047002.1,N
1594019655.2,286047002.1,N
1594019675.0,286047002.0,N
1594019675.9,286047002.0,N
1594019695.8,286047002.0,N
1594019715.6,286047001.4,N
1594019735.4,286047001.7,N
1594019755.3,286047001.7,N
1594019775.1,286047001.9,N
1594019795.8,286047002.1,N
1594019815.7,286046999.7,N
1594019835.5,286047002.1,N
1594019855.4,286047002.1,N
1594019875.2,286047001.9,N
1594019895.0,286047001.5,N
1594019895.9,286047001.5,N
1594019915.8,286047004.0,Y
1594019935.6,286047002.7,P
1594019955.5,286047002.2,P
1594019975.3,286047002.8,P
1594019995.1,286047002.4,Y
1594020015.9,286046998.5,P
1594020035.7,286046999.3,N
1594020055.6,286046998.3,N
1594020075.4,286046999.1,N
1594020095.2,286047000.7,N
1594020115.1,286046999.9,N
1594020116.0,286046999.9,N
1594020135.8,286047001.0,N
1594020155.6,286047000.3,N
1594020175.5,286047000.7,N
1594020195.3,286046998.7,N
1594020215.2,286047001.1,N
1594020235.9,286047001.0,N
1594020255.7,286047000.7,N
1594020275.6,286047001.0,N
1594020295.4,286046998.2,N
1594020315.3,286046998.4,N
1594020335.1,286046999.3,N
1594020355.8,286047000.7,N
1594020375.7,286046998.3,N
1594020395.5,286047001.0,N
1594020415.4,286047000.3,N
1594020435.2,286046999.3,N
1594020455.0,286047000.9,N
1594020455.9,286047000.9,N
1594020475.8,286047000.8,N
1594020495.6,286047000.4,N
1594020515.5,286047000.6,N
1594020535.3,286047001.0,N
1594020555.1,286047000.0,N
1594020575.9,286047000.0,N
1594020595.7,286047002.7,N
1594020615.5,286047000.3,N
1594020635.4,286046999.8,N
1594020655.2,286047002.7,N
1594020675.1,286047000.6,N
1594020676.0,286047000.6,N
1594020695.8,286046999.9,N
1594020715.6,286047001.5,N
1594020735.5,286047002.4,N
1594020755.3,286047002.4,N
1594020775.1,286047001.6,N
1594020795.9,286047001.5,N
1594020815.7,286047001.8,N
1594020835.6,286047000.1,N
1594020855.4,286047002.4,N
1594020875.2,286046998.2,N
1594020895.1,286047000.4,N
1594020896.0,286047000.4,N
1594020915.8,286047000.7,N
1594020935.7,286047001.2,N
1594020955.5,286047000.5,N
1594020975.3,286047000.3,N
1594020995.2,286047000.4,N
1594021015.0,286047002.2,N
1594021015.9,286047002.2,N
1594021035.8,286047001.4,N
1594021055.6,286047002.1,N
1594021075.4,286047002.0,N
1594021095.3,286047001.9,N
1594021115.1,286047002.7,N
1594021135.8,286047001.8,N
1594021155.7,286046999.8,N
1594021175.5,286047000.1,N
1594021195.4,286047002.3,N
1594021215.2,286046999.7,N
1594021235.0,286047002.5,N
1594021235.9,286047002.5,N
1594021255.8,286047002.1,N
1594021275.6,286047002.1,N
1594021295.5,286046999.7,N
1594021315.3,286047002.2,N
1594021335.1,286047000.2,N
1594021355.9,286047002.0,N
1594021375.7,286047002.4,N
1594021395.6,286047000.9,N
1594021415.4,286047000.1,N
1594021435.2,286046999.7,N
1594021455.1,286047000.6,N
1594021456.0,286047000.6,N
1594021475.8,286047000.3,N
1594021495.6,286047000.1,N
1594021515.5,286047002.0,N
1594021535.3,286047003.6,Y
1594021555.2,286047002.0,P
1594021575.0,286047001.8,P
1594021575.9,286047001.8,P
1594021595.7,286047003.7,Y
1594021615.6,286047002.4,P
1594021635.4,286047000.4,N
1594021655.3,286047000.9,N
1594021675.1,286047001.2,N
1594021695.8,286047000.8,N
1594021715.7,286046999.8,N
1594021735.5,286047000.8,N
1594021755.4,286046998.7,N
1594021775.2,286046999.3,N
1594021795.0,286046999.8,N
1594021795.9,286046999.8,N
1594021815.8,286047001.2,N
1594021835.6,286046997.0,Y
1594021855.4,286046997.4,P
1594021875.3,286046999.4,N
1594021895.1,286047001.0,N
1594021915.9,286046999.0,N
1594021935.7,286046997.0,N
1594021955.5,286046997.1,N
1594021975.4,286046995.0,Y
1594021995.2,286046997.6,P
1594022015.1,286046995.4,P
1594022016.0,286046995.4,P
1594022035.8,286046995.9,N
1594022055.6,286046993.6,Y
1594022075.5,286047000.1,P
1594022095.3,286047002.3,N
1594022115.2,286047000.9,N
1594022135.9,286046998.3,N
1594022155.7,286046998.6,N
1594022175.6,286046996.6,N
1594022195.4,286046995.3,N
1594022215.2,286046996.7,N
1594022235.1,286046996.9,N
1594022236.0,286046996.9,N
1594022255.8,286046997.5,N
1594022275.7,286046996.5,N
1594022295.5,286046997.5,N
1594022315.4,286046997.9,N
1594022335.2,286046997.5,N
1594022355.0,286046995.1,N
1594022355.9,286046995.1,N
1594022375.8,286046996.0,N
1594022395.6,286046993.3,Y
